Canton, GA

8:55 PM EDT on April 28, 2017 (GMT -0400)
Canton

Weather History for KCNI - November, 2012

Change the Weather History Date:

Saturday, November 3, 2012

  Actual Average (KMGE) Record (KMGE)
Temperature  
Mean Temperature 62 °F -  
Max Temperature 77 °F 64 °F 82 °F (2016)
Min Temperature 46 °F 46 °F 30 °F (1999)
Degree Days  
Heating Degree Days 4    
Growing Degree Days 12 (Base 50)    
Moisture  
Dew Point 31 °F    
Average Humidity 34    
Maximum Humidity 55    
Minimum Humidity 12    
Precipitation  
Precipitation 0.00 in - - ()
Sea Level Pressure  
Sea Level Pressure 30.05 in    
Wind  
Wind Speed 1 mph ()    
Max Wind Speed 7 mph    
Max Gust Speed -    
Visibility 10.0 miles    
Events      
Averages and records for this station are not official NWS values.
T = Trace of Precipitation, MM = Missing Value Source: Averaged Metar Reports

Daily Weather History Graph

Daily Weather History Graph

Search for Another Location

Airport or City:

Trip Planner

Search our weather history database for the weather conditions in past years. The results will help you decide how hot, cold, wet, or windy it might be!

Date:

Astronomy

Nov. 03, 2012 Rise Set
Actual Time 7:59 AM EDT 6:42 PM EDT
Civil Twilight 7:33 AM EDT 7:08 PM EDT
Nautical Twilight 7:04 AM EDT 7:37 PM EDT
Astronomical Twilight 6:34 AM EDT 8:07 PM EDT
Moon 10:26 PM EDT (11/3) 11:59 AM EDT (11/3)
Length of Visible Light 11h 34m
Length of Day
10h 42m
Waning Gibbous, 80% of the Moon is Illuminated
Nov 3
Waning Gibbous
Nov 6
Last Quarter
Nov 13
New
Nov 20
First Quarter
Nov 28
Full

Hourly Weather History & Observations

Time (EDT) Temp. Windchill Dew Point Humidity Pressure Visibility Wind Dir Wind Speed Gust Speed Precip Events Conditions
12:15 AM 55.4 °F - 23.0 °F 29% 30.03 in 10.0 mi Calm Calm - N/A   Clear
12:35 AM 55.4 °F - 23.0 °F 29% 30.03 in 10.0 mi Calm Calm - N/A   Clear
12:55 AM 55.4 °F - 23.0 °F 29% 30.03 in 10.0 mi Calm Calm - N/A   Clear
1:15 AM 55.4 °F - 23.0 °F 29% 30.03 in 10.0 mi Calm Calm - N/A   Clear
1:35 AM 53.6 °F - 23.0 °F 30% 30.04 in 10.0 mi Calm Calm - N/A   Clear
1:55 AM 53.6 °F - 24.8 °F 33% 30.04 in 10.0 mi West 3.5 mph - N/A   Clear
2:15 AM 53.6 °F - 24.8 °F 33% 30.04 in 10.0 mi Calm Calm - N/A   Clear
2:35 AM 51.8 °F - 26.6 °F 38% 30.04 in 10.0 mi West 3.5 mph - N/A   Clear
2:55 AM 51.8 °F - 26.6 °F 38% 30.04 in 10.0 mi Calm Calm - N/A   Clear
3:15 AM 50.0 °F - 26.6 °F 40% 30.04 in 10.0 mi Calm Calm - N/A   Clear
3:35 AM 50.0 °F - 26.6 °F 40% 30.04 in 10.0 mi Calm Calm - N/A   Clear
3:55 AM 50.0 °F - 28.4 °F 43% 30.04 in 10.0 mi Calm Calm - N/A   Clear
4:15 AM 50.0 °F - 28.4 °F 43% 30.04 in 10.0 mi Calm Calm - N/A   Clear
4:35 AM 46.4 °F - 30.2 °F 53% 30.04 in 10.0 mi Calm Calm - N/A   Clear
4:55 AM 48.2 °F - 28.4 °F 46% 30.04 in 10.0 mi Calm Calm - N/A   Clear
5:15 AM 50.0 °F - 28.4 °F 43% 30.04 in 10.0 mi West 3.5 mph - N/A   Clear
5:55 AM 48.2 °F - 28.4 °F 46% 30.04 in 10.0 mi Calm Calm - N/A   Clear
6:15 AM 46.4 °F 45.2 °F 30.2 °F 53% 30.05 in 10.0 mi West 3.5 mph - N/A   Clear
6:35 AM 46.4 °F - 28.4 °F 50% 30.06 in 10.0 mi Calm Calm - N/A   Clear
6:55 AM 46.4 °F - 28.4 °F 50% 30.06 in 10.0 mi Calm Calm - N/A   Clear
7:15 AM 48.2 °F - 28.4 °F 46% 30.06 in 10.0 mi Calm Calm - N/A   Clear
7:35 AM 50.0 °F - 26.6 °F 40% 30.07 in 10.0 mi West 3.5 mph - N/A   Clear
7:55 AM 50.0 °F - 26.6 °F 40% 30.07 in 10.0 mi West 3.5 mph - N/A   Clear
8:15 AM 50.0 °F - 26.6 °F 40% 30.08 in 10.0 mi West 3.5 mph - N/A   Clear
8:35 AM 48.2 °F - 28.4 °F 46% 30.08 in 10.0 mi WNW 3.5 mph - N/A   Clear
8:55 AM 50.0 °F - 28.4 °F 43% 30.09 in 10.0 mi Calm Calm - N/A   Clear
9:15 AM 53.6 °F - 26.6 °F 35% 30.11 in 10.0 mi Calm Calm - N/A   Clear
9:35 AM 55.4 °F - 24.8 °F 31% 30.11 in 10.0 mi West 3.5 mph - N/A   Clear
9:55 AM 57.2 °F - 28.4 °F 33% 30.11 in 10.0 mi Calm Calm - N/A   Clear
10:15 AM 55.4 °F - 32.0 °F 41% 30.11 in 10.0 mi Calm Calm - N/A   Clear
10:35 AM 59.0 °F - 32.0 °F 36% 30.12 in 10.0 mi South 3.5 mph - N/A   Clear
10:55 AM 62.6 °F - 30.2 °F 30% 30.12 in 10.0 mi Calm Calm - N/A   Clear
11:15 AM 64.4 °F - 28.4 °F 26% 30.12 in 10.0 mi South 4.6 mph - N/A   Clear
11:35 AM 68.0 °F - 15.8 °F 13% 30.11 in 10.0 mi SSW 4.6 mph - N/A   Clear
11:55 AM 69.8 °F - 14.0 °F 12% 30.11 in 10.0 mi Calm Calm - N/A   Clear
12:15 PM 69.8 °F - 14.0 °F 12% 30.11 in 10.0 mi West 5.8 mph - N/A   Clear
12:35 PM 71.6 °F - 19.4 °F 14% 30.11 in 10.0 mi WSW 4.6 mph - N/A   Clear
12:55 PM 71.6 °F - 21.2 °F 15% 30.10 in 10.0 mi West 4.6 mph - N/A   Clear
1:15 PM 75.2 °F - 19.4 °F 12% 30.09 in 10.0 mi Calm Calm - N/A   Clear
1:35 PM 73.4 °F - 24.8 °F 16% 30.08 in 10.0 mi NW 4.6 mph - N/A   Mostly Cloudy
1:55 PM 73.4 °F - 35.6 °F 25% 30.07 in 10.0 mi WNW 6.9 mph - N/A   Scattered Clouds
2:15 PM 73.4 °F - 32.0 °F 22% 30.07 in 10.0 mi West 4.6 mph - N/A   Clear
2:35 PM 75.2 °F - 32.0 °F 21% 30.06 in 10.0 mi NW 5.8 mph - N/A   Clear
2:55 PM 77.0 °F - 33.8 °F 21% 30.05 in 10.0 mi WNW 4.6 mph - N/A   Clear
3:15 PM 77.0 °F - 35.6 °F 22% 30.04 in 10.0 mi WNW 4.6 mph - N/A   Clear
3:35 PM 77.0 °F - 35.6 °F 22% 30.04 in 10.0 mi SW 4.6 mph - N/A   Clear
3:55 PM 77.0 °F - 35.6 °F 22% 30.03 in 10.0 mi West 4.6 mph - N/A   Clear
4:15 PM 77.0 °F - 35.6 °F 22% 30.03 in 10.0 mi NW 4.6 mph - N/A   Clear
4:35 PM 77.0 °F - 33.8 °F 21% 30.02 in 10.0 mi Calm Calm - N/A   Clear
4:55 PM 77.0 °F - 33.8 °F 21% 30.02 in 10.0 mi West 3.5 mph - N/A   Clear
5:15 PM 77.0 °F - 33.8 °F 21% 30.02 in 10.0 mi Calm Calm - N/A   Clear
5:35 PM 75.2 °F - 35.6 °F 24% 30.02 in 10.0 mi West 3.5 mph - N/A   Clear
5:55 PM 73.4 °F - 33.8 °F 23% 30.02 in 10.0 mi SW 5.8 mph - N/A   Clear
6:15 PM 73.4 °F - 35.6 °F 25% 30.02 in 10.0 mi SW 4.6 mph - N/A   Clear
6:35 PM 71.6 °F - 35.6 °F 27% 30.02 in 10.0 mi SW 3.5 mph - N/A   Clear
6:55 PM 71.6 °F - 35.6 °F 27% 30.02 in 10.0 mi WSW 3.5 mph - N/A   Clear
7:15 PM 71.6 °F - 35.6 °F 27% 30.01 in 10.0 mi Calm Calm - N/A   Clear
7:35 PM 69.8 °F - 35.6 °F 28% 30.01 in 10.0 mi Calm Calm - N/A   Clear
7:55 PM 69.8 °F - 35.6 °F 28% 30.01 in 10.0 mi Calm Calm - N/A   Clear
8:15 PM 69.8 °F - 35.6 °F 28% 30.01 in 10.0 mi Calm Calm - N/A   Clear
8:35 PM 64.4 °F - 39.2 °F 40% 30.02 in 10.0 mi Calm Calm - N/A   Clear
8:55 PM 62.6 °F - 41.0 °F 45% 30.02 in 10.0 mi Calm Calm - N/A   Clear
9:15 PM 64.4 °F - 41.0 °F 42% 30.02 in 10.0 mi Calm Calm - N/A   Clear
9:35 PM 60.8 °F - 41.0 °F 48% 30.02 in 10.0 mi Calm Calm - N/A   Clear
9:55 PM 60.8 °F - 42.8 °F 52% 30.02 in 10.0 mi Calm Calm - N/A   Clear
10:15 PM 59.0 °F - 42.8 °F 55% 30.02 in 10.0 mi Calm Calm - N/A   Clear
10:35 PM 60.8 °F - 42.8 °F 52% 30.02 in 10.0 mi Calm Calm - N/A   Clear
10:55 PM 60.8 °F - 42.8 °F 52% 30.02 in 10.0 mi Calm Calm - N/A   Clear
11:15 PM 60.8 °F - 42.8 °F 52% 30.03 in 10.0 mi Calm Calm - N/A   Clear
11:35 PM 60.8 °F - 42.8 °F 52% 30.02 in 10.0 mi WSW 3.5 mph - N/A   Clear
11:55 PM 60.8 °F - 42.8 °F 52% 30.03 in 10.0 mi SW 4.6 mph - N/A   Clear